www.pogodaiklimat.ru

Погода и климат >> Архив погоды >> Венгрия >> Веспрем


ПОГОДА в Веспреме

  • Прогноз погоды в Веспреме
  • Монитор погоды в Веспреме

АРХИВ ПОГОДЫ в Веспреме

Время (UTC), дата Ветер
(напр.,м/с)
 
Видим.   Явления Облачность Т
(С)
Тd
(С)
f
(%)
Тe
(С)
Тes
(С)
Комфортность P
(гПа)
Po
(гПа)
Тmin
(С)
Tmax
(С)
R
(мм)
R24
(мм)
S
(см)
07 12.06 ЮВ 3 н/о н/о +24.6 +18.1 67 +29 +29 душно 1014.1 981.9
08 12.06 ЮВ 2
{7}
н/о н/о +24.9 +17.9 65 +29 +29 душно 1014.1 981.9
09 12.06 ЮВ 4
{8}
н/о н/о +25.2 +17.1 61 +29 +29 душно 1013.9 981.7
10 12.06 ЮВ 4
{9}
н/о н/о +26.8 +17.0 55 +31 +31 душно 1013.8 981.8
11 12.06 ЮВ 4
{9}
н/о н/о +27.6 +18.0 56 +32 +32 очень
душно
1013.5 981.6
12 12.06 Ю 6
{9}
н/о н/о +27.8 +17.3 53 +32 +32 душно 1013.0 981.1
13 12.06 ЮВ 4
{9}
н/о н/о +28.5 +18.0 53 +33 +33 очень
душно
1012.6 980.8
14 12.06 Ю 4
{8}
н/о н/о +29.0 +18.5 53 +34 +34 очень
душно
1012.0 980.3
15 12.06 Ю 3 н/о н/о +29.2 +18.3 52 +34 +34 очень
душно
1011.9 980.2
16 12.06 ЮВ 2
{7}
н/о н/о +29.0 +18.5 53 +34 +34 очень
душно
1011.7 980.0
17 12.06 ЮВ 2 н/о н/о +28.1 +18.8 57 +33 +33 очень
душно
1011.5 979.7
18 12.06 ЮВ 2 н/о н/о +26.3 +18.4 62 +31 +31 душно 1011.8 979.8 +29.5
19 12.06 ЮВ 1 н/о н/о +25.1 +17.8 64 +29 +29 душно 1012.0 979.9
20 12.06 Ю 2 н/о н/о +23.9 +18.3 71 +28 +28 душно 1012.7 980.4
21 12.06 ЮВ 2 н/о н/о +23.4 +17.8 71 +29 +29 душно 1013.1 980.8
22 12.06 В 1 н/о н/о +21.2 +18.0 82 +25 +25 комфорт 1013.6 981.0
23 12.06 штиль 0 н/о н/о +19.2 +17.0 87 +21 +21 комфорт 1013.6 980.8
00 13.06 В 1 н/о н/о +18.3 +16.5 89 +20 +20 1013.5 980.6
01 13.06 СЗ 1 н/о н/о +17.4 +15.4 88 +18 +18 1013.4 980.4
02 13.06 СЗ 1 н/о н/о +17.2 +15.9 92 +18 +18 1013.3 980.3
03 13.06 штиль 0 н/о н/о +16.7 +15.4 92 +17 +17 1013.3 980.2
04 13.06 штиль 0 н/о н/о +17.6 +16.3 92 +18 +18 1013.3 980.3
05 13.06 С 1 н/о н/о +20.2 +18.1 88 +25 +25 комфорт 1013.5 980.8
06 13.06 В 1 н/о н/о +22.0 +18.2 79 +27 +27 душно 1013.6 981.1 +16.6
07 13.06 В 1 н/о н/о +24.6 +19.7 74 +30 +30 очень
душно
1013.3 981.1
08 13.06 ЮВ 2 н/о н/о +26.5 +20.1 68 +33 +33 очень
душно
1013.4 981.4
09 13.06 ЮВ 2 н/о н/о +26.6 +20.0 67 +33 +33 очень
душно
1013.5 981.5
10 13.06 ЮВ 2 н/о н/о +28.3 +20.6 63 +35 +35 очень
душно
1013.4 981.6
11 13.06 Ю 3 н/о н/о +29.5 +20.6 59 +37 +37 очень
душно
1013.2 981.5
12 13.06 Ю 3
{7}
н/о н/о +29.7 +20.3 57 +36 +36 очень
душно
1012.9 981.2
13 13.06 Ю 3
{7}
н/о н/о +30.3 +20.5 56 +37 +37 очень
душно
1012.6 981.0
14 13.06 Ю 4
{7}
н/о н/о +30.7 +20.6 55 +38 +38 очень
душно
1012.5 980.9
15 13.06 Ю 5
{7}
н/о н/о +31.0 +18.4 47 +36 +36 очень
душно
1012.3 980.8
16 13.06 Ю 4
{7}
н/о н/о +30.3 +18.1 48 +35 +35 очень
душно
1012.3 980.7
17 13.06 ЮЗ 3 н/о н/о +29.0 +19.6 57 +35 +35 очень
душно
1012.4 980.7
18 13.06 ЮЗ 3 н/о н/о +27.8 +19.6 61 +34 +34 очень
душно
1012.7 980.8 +31.2
19 13.06 ЮЗ 2 н/о н/о +24.8 +18.5 68 +29 +29 душно 1013.0 980.8
20 13.06 ЮЗ 2 н/о н/о +24.7 +17.4 64 +29 +29 душно 1013.7 981.5
21 13.06 Ю 2 н/о н/о +23.8 +17.5 68 +28 +28 душно 1014.2 981.9
22 13.06 Ю 1 н/о н/о +20.0 +16.2 79 +24 +24 комфорт 1015.4 982.6
23 13.06 Ю 2 н/о н/о +21.4 +17.2 77 +25 +25 комфорт 1015.3 982.7
00 14.06 Ю 1 н/о н/о +19.9 +16.5 81 +24 +24 комфорт 1015.2 982.4
01 14.06 штиль 0 н/о н/о +17.8 +16.1 90 +18 +18 1015.4 982.4
02 14.06 З 1 н/о н/о +17.3 +14.9 86 +18 +18 1015.4 982.3
03 14.06 СЗ 1 н/о н/о +16.9 +15.1 89 +18 +18 1016.3 983.1
04 14.06 штиль 0 н/о н/о +17.5 +15.1 86 +17 +17 1016.7 983.6
05 14.06 ЮЗ 1 н/о н/о +20.3 +16.7 80 +24 +24 комфорт 1016.5 983.7
06 14.06 СЗ 2 н/о н/о +23.5 +17.7 70 +28 +28 душно 1016.6 984.2 +16.1
07 14.06 СЗ 2 н/о н/о +24.2 +18.8 72 +29 +29 душно 1017.1 984.7
08 14.06 СЗ 1 н/о н/о +25.9 +19.8 69 +32 +32 очень
душно
1017.5 985.3
09 14.06 СЗ 1 н/о н/о +27.0 +20.1 66 +33 +33 очень
душно
1017.6 985.5
10 14.06 В 1 н/о н/о +28.2 +20.7 64 +35 +35 очень
душно
1017.7 985.7
11 14.06 З 1 н/о н/о +29.0 +21.2 63 +37 +37 очень
душно
1017.6 985.7
12 14.06 ЮЗ 1 н/о н/о +29.5 +20.9 60 +37 +37 очень
душно
1017.2 985.4
13 14.06 Ю 2 н/о н/о +29.7 +20.8 59 +37 +37 очень
душно
1017.0 985.2
14 14.06 ЮЗ 2 н/о н/о +30.3 +20.0 54 +37 +37 очень
душно
1016.9 985.2
15 14.06 Ю 2 н/о н/о +30.2 +21.0 58 +38 +38 очень
душно
1016.6 984.9
16 14.06 Ю 2 н/о н/о +29.6 +21.0 60 +37 +37 очень
душно
1016.4 984.6
17 14.06 ЮЗ 2 н/о н/о +28.6 +21.6 66 +37 +37 очень
душно
1016.3 984.4
18 14.06 ЮЗ 1 н/о н/о +27.1 +21.6 72 +35 +35 очень
душно
1016.5 984.4 +30.9
19 14.06 Ю 1 н/о н/о +24.7 +20.8 79 +31 +31 очень
душно
1016.8 984.5
20 14.06 штиль 0 н/о н/о +22.9 +20.1 84 +30 +30 очень
душно
1017.2 984.7
21 14.06 С 1 н/о н/о +22.1 +20.2 89 +28 +28 душно 1017.2 984.6
22 14.06 штиль 0 н/о н/о +20.7 +19.0 90 +25 +25 комфорт 1017.4 984.6
23 14.06 штиль 0 н/о н/о +20.2 +18.5 90 +23 +23 комфорт 1016.8 984.0
00 15.06 штиль 0 н/о н/о +19.5 +18.7 95 +22 +22 комфорт 1016.8 983.9
01 15.06 штиль 0 н/о н/о +19.7 +18.9 95 +22 +22 комфорт 1016.4 983.6
02 15.06 штиль 0 н/о н/о +18.5 +17.9 96 +19 +19 1016.4 983.4
03 15.06 штиль 0 н/о н/о +18.2 +17.4 95 +19 +19 1016.2 983.2
04 15.06 штиль 0 н/о н/о +20.0 +18.7 92 +23 +23 комфорт 1016.1 983.3
05 15.06 штиль 0 н/о н/о +22.5 +19.9 85 +29 +29 очень
душно
1015.9 983.4
06 15.06 штиль 0 н/о н/о +24.7 +20.6 78 +31 +31 очень
душно
1015.2 982.9 +17.8
07 15.06 ЮВ 1 н/о н/о +25.2 +20.5 75 +31 +31 очень
душно
1015.2 983.0
08 15.06 Ю 2 н/о н/о +26.7 +19.6 65 +32 +32 очень
душно
1015.2 983.1
09 15.06 Ю 3 н/о н/о +27.6 +19.9 63 +34 +34 очень
душно
1015.4 983.4
10 15.06 Ю 3 н/о н/о +28.6 +18.7 55 +34 +34 очень
душно
1014.9 983.1
11 15.06 ЮВ 2 н/о н/о +29.3 +18.7 53 +34 +34 очень
душно
1014.6 982.8
12 15.06 Ю 4
{7}
н/о н/о +30.1 +17.9 48 +35 +35 очень
душно
1014.1 982.4
13 15.06 Ю 3
{7}
н/о н/о +29.5 +17.3 48 +34 +34 очень
душно
1013.7 982.0
14 15.06 Ю 4 н/о н/о +29.9 +18.4 50 +35 +35 очень
душно
1013.5 981.8
15 15.06 Ю 3 н/о н/о +28.8 +18.9 55 +34 +34 очень
душно
1013.3 981.5
16 15.06 Ю 1 н/о н/о +28.5 +18.0 53 +33 +33 очень
душно
1012.7 980.9
17 15.06 ЮВ 1 н/о н/о +27.2 +19.8 64 +33 +33 очень
душно
1012.3 980.4
18 15.06 ЮВ 1 н/о н/о +25.4 +19.1 68 +30 +30 душно 1012.3 980.2 +30.3
19 15.06 штиль 0 н/о н/о +23.0 +18.8 77 +29 +29 очень
душно
1012.6 980.2
20 15.06 штиль 0 н/о н/о +22.0 +18.0 78 +27 +27 душно 1013.1 980.6
21 15.06 штиль 0 н/о н/о +20.7 +18.1 85 +24 +24 комфорт 1013.3 980.7
22 15.06 штиль 0 н/о н/о +20.2 +17.6 85 +23 +23 комфорт 1013.3 980.6
23 15.06 штиль 0 н/о н/о +20.2 +18.0 87 +23 +23 комфорт 1013.3 980.6
00 16.06 штиль 0 н/о н/о +20.2 +17.6 85 +23 +23 комфорт 1012.9 980.2
01 16.06 С 2 н/о н/о +20.4 +17.8 85 +24 +24 комфорт 1012.9 980.2
02 16.06 штиль 0 н/о н/о +19.0 +15.9 82 +20 +20 1012.8 980.0
03 16.06 С 1 н/о н/о +19.1 +17.1 88 +22 +22 комфорт 1012.7 979.9
04 16.06 штиль 0 н/о н/о +20.3 +17.3 83 +23 +23 комфорт 1012.8 980.1
05 16.06 СВ 1 н/о н/о +23.6 +18.9 75 +28 +28 душно 1012.7 980.4
06 16.06 С 1 н/о н/о +23.0 +18.3 75 +29 +29 очень
душно
1013.2 980.8 +18.4
07 16.06 н/о н/о +23.9 +18.5 72 1013.6 981.3
08 16.06 С 2 н/о н/о +26.7 +21.0 71 +34 +34 очень
душно
1013.6 981.6
09 16.06 С 3 н/о н/о +26.8 +20.4 68 +33 +33 очень
душно
1014.1 982.1
10 16.06 С 3
{7}
н/о н/о +27.6 +20.7 66 +34 +34 очень
душно
1014.2 982.3
11 16.06 С 5
{9}
н/о н/о +27.4 +20.2 65 +34 +34 очень
душно
1014.1 982.2
12 16.06 С 5
{8}
н/о н/о +26.2 +19.6 67 +32 +32 очень
душно
1014.3 982.2
13 16.06 С 4
{9}
н/о н/о +24.5 +19.1 72 +29 +29 душно 1014.3 982.0
14 16.06 СЗ 4
{8}
н/о н/о +23.7 +18.6 73 +28 +28 душно 1014.1 981.8
15 16.06 С 4
{8}
н/о н/о +23.4 +18.1 72 +29 +29 душно 1014.7 982.3
16 16.06 СЗ 5
{9}
н/о н/о +22.6 +18.4 77 +28 +28 душно 1014.8 982.3
17 16.06 С 4
{8}
н/о н/о +23.2 +18.1 73 +29 +29 душно 1015.3 982.9
18 16.06 С 5
{10}
н/о н/о +22.4 +17.5 74 +27 +27 душно 1014.8 982.3 +28.0
19 16.06 СЗ 4
{10}
н/о н/о +21.1 +17.9 82 +25 +25 комфорт 1015.6 982.9
20 16.06 С 4
{14}
н/о н/о +21.3 +17.1 77 +25 +25 комфорт 1016.8 984.1
21 16.06 СЗ 6
{9}
н/о н/о +20.5 +16.1 76 +23 +23 комфорт 1016.8 984.0
22 16.06 СЗ 6
{13}
н/о н/о +20.5 +15.7 74 +23 +23 комфорт 1017.9 985.1
23 16.06 СЗ 4
{7}
н/о н/о +18.9 +16.0 83 +20 +20 1018.6 985.6
00 17.06 С 4
{9}
н/о н/о +17.2 +16.2 94 +17 +17 1017.9 984.7 0.5
01 17.06 СЗ 4 н/о н/о +17.3 +16.5 95 +17 +17 1016.9 983.8
02 17.06 СВ 3
{8}
н/о н/о +17.4 +16.3 93 +17 +17 1018.0 984.8
03 17.06 СЗ 3
{7}
н/о н/о +17.0 +15.9 93 +17 +17 1018.4 985.2
04 17.06 С 3 н/о н/о +17.7 +16.2 91 +18 +18 1017.8 984.7
05 17.06 СЗ 2 н/о н/о +18.6 +16.6 88 +20 +20 1018.1 985.1
06 17.06 С 3 н/о н/о +19.2 +16.8 86 +21 +21 комфорт 1018.4 985.4 +16.8 1
07 17.06 С 3 н/о н/о +20.6 +17.6 83 +25 +25 комфорт 1018.3 985.5
08 17.06 С 2 н/о н/о +21.4 +17.6 79 +26 +26 душно 1018.5 985.8
09 17.06 С 2
{7}
н/о н/о +22.2 +17.1 73 +27 +27 душно 1018.3 985.7
10 17.06 С 3 н/о н/о +22.8 +17.5 72 +28 +28 душно 1018.4 985.8
11 17.06 С 2 н/о н/о +23.3 +17.7 71 +29 +29 душно 1018.3 985.8
12 17.06 С 2 н/о н/о +21.3 +19.0 87 +26 +26 душно 1018.4 985.7 3
13 17.06 н/о н/о +23.5 +19.0 76 1017.7 985.2
14 17.06 В 2 н/о н/о +24.9 +18.8 69 +30 +30 душно 1017.0 984.7
15 17.06 С 1 н/о н/о +25.5 +17.7 62 +30 +30 душно 1016.4 984.2
16 17.06 СВ 2
{7}
н/о н/о +23.7 +16.5 64 +27 +27 жарко 1016.5 984.1
17 17.06 СВ 2 н/о н/о +23.9 +17.9 69 +28 +28 душно 1016.5 984.1
18 17.06 СВ 1 н/о н/о +22.1 +17.0 73 +27 +27 душно 1017.1 984.5 +25.8 3
19 17.06 С 2 н/о н/о +19.9 +16.3 80 +23 +23 комфорт 1017.6 984.7
20 17.06 СВ 1 н/о н/о +18.6 +16.2 86 +21 +21 комфорт 1018.3 985.3
21 17.06 С 1 н/о н/о +17.9 +16.2 90 +19 +19 1018.4 985.3
22 17.06 СВ 1 н/о н/о +17.7 +16.2 91 +19 +19 1018.3 985.2
23 17.06 В 1 н/о н/о +17.8 +16.5 92 +19 +19 1018.1 985.0
00 18.06 С 1 н/о н/о +16.6 +15.5 93 +17 +17 1018.0 984.8
01 18.06 штиль 0 н/о н/о +15.9 +15.1 95 +16 +16 1017.8 984.5
02 18.06 штиль 0 н/о н/о +15.6 +15.0 96 +15 +15 1018.1 984.7
03 18.06 штиль 0 н/о н/о +15.9 +15.3 96 +16 +16 1018.0 984.7
04 18.06 штиль 0 н/о н/о +17.0 +16.0 94 +17 +17 1017.8 984.6
05 18.06 штиль 0 н/о н/о +18.1 +16.8 92 +18 +18 1018.1 985.0
06 18.06 штиль 0 н/о н/о +18.9 +17.0 89 +20 +20 1018.2 985.2 +15.5
07 18.06 В 1 н/о н/о +20.6 +15.2 71 +25 +25 комфорт 1018.2 985.4
08 18.06 В 1 н/о н/о +22.9 +16.5 67 +28 +28 душно 1018.0 985.5
09 18.06 С 2 н/о н/о +23.1 +16.6 67 +28 +28 душно 1017.8 985.3
10 18.06 СВ 1 н/о н/о +24.4 +16.4 61 +28 +28 душно 1017.4 985.0
11 18.06 С 1 н/о н/о +24.7 +17.2 63 +29 +29 душно 1017.0 984.7
12 18.06 ЮВ 1 н/о н/о +25.2 +16.6 59 +29 +29 душно 1016.7 984.4
13 18.06 ЮВ 1 н/о н/о +27.1 +16.1 51 +30 +30 душно 1015.7 983.7
14 18.06 ЮВ 1 н/о н/о +27.2 +16.2 51 +31 +31 душно 1015.1 983.1
15 18.06 Ю 2 н/о н/о +27.3 +15.7 49 +30 +30 душно 1014.6 982.6
16 18.06 ЮВ 1 н/о н/о +27.0 +15.4 49 +30 +30 душно 1014.4 982.4
17 18.06 ЮЗ 1 н/о н/о +26.4 +15.8 52 +30 +30 душно 1014.3 982.2
18 18.06 ЮЗ 1 н/о н/о +25.6 +15.9 55 +29 +29 душно 1014.8 982.6 +27.5
19 18.06 штиль 0 н/о н/о +21.8 +16.5 72 +26 +26 душно 1015.4 982.8
20 18.06 штиль 0 н/о н/о +20.3 +16.7 80 +23 +23 комфорт 1015.6 982.8
21 18.06 ЮВ 1 н/о н/о +20.7 +17.5 82 +26 +26 душно 1015.5 982.8
22 18.06 С 1 н/о н/о +18.5 +16.8 90 +20 +20 1015.8 982.8
23 18.06 штиль 0 н/о н/о +17.7 +16.0 90 +18 +18 1015.7 982.7
00 19.06 С 1 н/о н/о +17.1 +16.0 93 +18 +18 1015.4 982.3
01 19.06 штиль 0 н/о н/о +16.7 +16.1 96 +17 +17 1015.1 982.0
02 19.06 С 1 н/о н/о +16.8 +16.2 96 +18 +18 1014.8 981.7
03 19.06 С 1 н/о н/о +16.8 +16.0 95 +18 +18 1014.7 981.6
05 19.06 В 2 н/о н/о +20.0 +17.4 85 +23 +23 комфорт 1014.8 982.0
06 19.06 В 1 н/о н/о +21.4 +17.8 80 +26 +26 душно 1014.8 982.2 +16.1
07 19.06 В 1 н/о н/о +23.3 +19.0 77 +30 +30 очень
душно
1014.4 982.0
08 19.06 В 2 н/о н/о +24.8 +19.4 72 +30 +30 душно 1014.1 981.9

 

Местоположение метеостанции Веспрем (Венгрия): широта 47.07 долгота 17.83 высота над уровнем моря 281 м.

В архиве по умолчанию представлена погода в Веспреме за последнюю неделю. Архивные данные за месяц целиком и за предыдущие месяцы, начиная с января 2011 года, Вы можете получить, выбрав интересующий диапазон дат из раскрывающегося списка и нажав кнопку "Ввод!".


*Определитесь, кто Вы:
робот инопланетянин человек

Внимание! Время в таблицах - всемирное. Для получения местного времени необходимо прибавить поправку, которая равна 1 ч.

Смотрите также архив погоды в соседних городах и на ближайших метеорологических станциях:

Погода в Шиофоке (Венгрия) (24 км)
Погода на Базе ВВС Папа (Венгрия) (41 км)
Погода в Агарде (Венгрия) (61 км)
Погода в Пер аэропорту (Венгрия) (61 км)
Погода в Шармеллеке (Венгрия) (66 км)
Погода в Дьере (Венгрия) (73 км)
Погода в Тате (Венгрия) (74 км)
Погода в Капошваре (Венгрия) (77 км)
Погода в Залаэгерсеге (Венгрия) (81 км)
Погода в Гурбаново (Словакия) (93 км)

Пояснения к столбцам:

Ветер - указаны скорость ветра в м/с - средняя за 10 мин, порывы в срок и между сроками (в фигурных скобках) и направление, откуда дует ветер: С - северный, СВ - северо-восточный, В - восточный, ЮВ - юго-восточный, Ю - южный, ЮЗ - юго-западный, З - западный, СЗ - северо-западный.
Видимость - горизонтальная дальность видимости в метрах или километрах. При видимости от 1 до 10 км при отсутствии осадков обычно наблюдается дымка, при ухудшении видимости до 1 км и менее - туман. В сухую погоду видимость может ухудшаться дымом, пылью или мглою.
Явления - указаны атмосферные явления, наблюдавшиеся в срок или в последний час перед сроком; фигурными скобками обозначены явления, наблюдавшиеся между сроками (за 1-3 часа до срока); квадратными скобками обозначены град или гололедные отложения с указанием их диаметра в мм.
Облачность - указаны через наклонную черту общая и нижняя облачность в баллах и высота нижней границы облаков в метрах; квадратными скобками обозначены формы облаков: Ci - перистые, Cs - перисто-слоистые, Cc - перисто-кучевые, Ac - высококучевые, As - высокослоистые, Sc - слоисто-кучевые, Ns - слоисто-дождевые, Cu - кучевые, Cb - кучево-дождевые. Подробнее классификацию облаков см. в Атласе облаков (PDF).
T - Температура воздуха - температура, измеренная на высоте 2 м над землей.
Td - Температура точки росы - температура, при понижении до которой содержащийся в воздухе водяной пар достигнет насыщения.
f - Относительная влажность воздуха - влажноcть воздуха, измеренная на высоте 2 м над землей.
Te - Эффективная температура - температура, которую ощущает одетый по сезону человек в тени. Характеристика душности погоды. При расчете учитывается влияние влажности воздуха и скорости ветра на теплоощущения человека.
Tes - Эффективная температура на солнце - температура, которую ощущает человек, с поправкой на солнечный нагрев. Характеристика знойности погоды. Зависит от высоты солнца над горизонтом, облачности и скорости ветра. Ночью, в пасмурную погоду, а также при ветре 12 м/с и более поправка равна нулю.
P - Атмосферное давление - приведенное к уровню моря атмосферное давление.
Po - Атмосферное давление - измеренное на уровне метеостанции атмосферное давление.
Tmin - Минимальная температура - минимум температуры воздуха на высоте 2 м над землей.
Tmax - Максимальная температура - максимум температуры воздуха на высоте 2 м над землей.
R - Количество осадков - Количество выпавших осадков за период времени, мм. При наведении курсора мыши на число - период времени, за который выпало указанное количество осадков.
R24 - Количество осадков - Количество выпавших осадков за 24 часа, мм.
S - Снежный покров - Высота снежного покрова, см. При наведении курсора мыши на число - состояние снежного покрова и степень покрытия местности в баллах.